Time,TemperatureF,DewpointF,PressureIn,WindDirection,WindDirectionDegrees,WindSpeedMPH,WindSpeedGustMPH,Humidity,HourlyPrecipIn,Conditions,Clouds,dailyrainin,SoftwareType,DateUTC
2013-01-20 00:04:00,55.1,53.7,30.23,SE,128,0.0,0.0,95,0.00,,,0.00,Wunderground v.1.15,2013-01-20 05:04:00,
2013-01-20 00:09:00,55.1,53.7,30.23,SE,129,0.0,0.0,95,0.00,,,0.00,Wunderground v.1.15,2013-01-20 05:09:00,
2013-01-20 00:14:00,55.1,53.7,30.23,SE,128,0.0,0.0,95,0.00,,,0.00,Wunderground v.1.15,2013-01-20 05:14:00,
2013-01-20 00:19:00,55.1,54.0,30.22,SE,126,0.0,0.0,96,0.00,,,0.00,Wunderground v.1.15,2013-01-20 05:19:00,
2013-01-20 00:24:00,55.1,54.0,30.22,ESE,116,0.0,0.0,96,0.00,,,0.00,Wunderground v.1.15,2013-01-20 05:24:00,
2013-01-20 00:29:00,55.1,53.7,30.22,ESE,116,0.0,0.0,95,0.00,,,0.00,Wunderground v.1.15,2013-01-20 05:29:00,
2013-01-20 00:33:00,55.0,53.6,30.22,ESE,116,0.0,0.0,95,0.00,,,0.00,Wunderground v.1.15,2013-01-20 05:33:00,
2013-01-20 00:38:00,54.9,53.5,30.21,ESE,116,0.0,0.0,95,0.00,,,0.00,Wunderground v.1.15,2013-01-20 05:38:00,
2013-01-20 00:43:00,54.7,53.3,30.21,ESE,116,0.0,0.0,95,0.00,,,0.00,Wunderground v.1.15,2013-01-20 05:43:00,
2013-01-20 00:49:00,54.6,53.5,30.21,ESE,115,0.0,0.0,96,0.00,,,0.00,Wunderground v.1.15,2013-01-20 05:49:00,
2013-01-20 00:54:00,54.5,53.4,30.22,SE,126,0.0,1.0,96,0.00,,,0.00,Wunderground v.1.15,2013-01-20 05:54:00,
2013-01-20 00:59:00,54.6,53.5,30.22,SE,130,1.0,1.0,96,0.00,,,0.00,Wunderground v.1.15,2013-01-20 05:59:00,
2013-01-20 01:04:00,54.5,53.4,30.22,SE,129,1.0,1.0,96,0.00,,,0.00,Wunderground v.1.15,2013-01-20 06:04:00,
2013-01-20 01:09:00,54.6,53.5,30.22,SE,129,0.0,0.0,96,0.00,,,0.00,Wunderground v.1.15,2013-01-20 06:09:00,
2013-01-20 01:14:00,54.7,53.6,30.22,SE,126,0.0,2.0,96,0.00,,,0.00,Wunderground v.1.15,2013-01-20 06:14:00,
2013-01-20 01:24:00,54.8,53.7,30.21,ESE,108,0.0,1.0,96,0.00,,,0.00,Wunderground v.1.15,2013-01-20 06:24:00,
2013-01-20 01:29:00,54.9,53.8,30.21,ESE,108,0.0,0.0,96,0.00,,,0.00,Wunderground v.1.15,2013-01-20 06:29:00,
2013-01-20 01:34:00,54.9,53.8,30.21,ESE,108,0.0,0.0,96,0.00,,,0.00,Wunderground v.1.15,2013-01-20 06:34:00,
2013-01-20 01:39:00,55.0,53.9,30.21,SE,134,1.0,1.0,96,0.00,,,0.00,Wunderground v.1.15,2013-01-20 06:39:00,
2013-01-20 01:44:00,55.1,54.0,30.20,SE,132,0.0,1.0,96,0.00,,,0.00,Wunderground v.1.15,2013-01-20 06:44:00,
2013-01-20 01:49:00,55.1,54.0,30.20,SSE,156,0.0,0.0,96,0.00,,,0.00,Wunderground v.1.15,2013-01-20 06:49:00,
2013-01-20 01:54:00,55.3,54.2,30.20,SE,138,0.0,1.0,96,0.00,,,0.00,Wunderground v.1.15,2013-01-20 06:54:00,
2013-01-20 01:59:00,55.3,54.2,30.20,SE,128,0.0,0.0,96,0.00,,,0.00,Wunderground v.1.15,2013-01-20 06:59:00,
2013-01-20 02:04:00,55.4,54.3,30.20,SE,134,0.0,2.0,96,0.00,,,0.00,Wunderground v.1.15,2013-01-20 07:04:00,
2013-01-20 02:09:00,55.3,54.2,30.20,SE,132,1.0,1.0,96,0.00,,,0.00,Wunderground v.1.15,2013-01-20 07:09:00,
2013-01-20 02:14:00,55.4,54.3,30.20,SE,130,1.0,1.0,96,0.00,,,0.00,Wunderground v.1.15,2013-01-20 07:14:00,
2013-01-20 02:19:00,55.4,54.3,30.20,SSE,148,1.0,1.0,96,0.00,,,0.00,Wunderground v.1.15,2013-01-20 07:19:00,
2013-01-20 02:24:00,55.4,54.3,30.20,SE,134,1.0,2.0,96,0.00,,,0.00,Wunderground v.1.15,2013-01-20 07:24:00,
2013-01-20 02:34:00,55.4,54.3,30.20,ESE,120,1.0,1.0,96,0.00,,,0.00,Wunderground v.1.15,2013-01-20 07:34:00,
2013-01-20 02:39:00,55.4,54.3,30.20,SSW,195,0.0,0.0,96,0.00,,,0.00,Wunderground v.1.15,2013-01-20 07:39:00,
2013-01-20 02:44:00,55.5,54.4,30.19,SE,140,0.0,0.0,96,0.00,,,0.00,Wunderground v.1.15,2013-01-20 07:44:00,
2013-01-20 02:49:00,55.5,54.4,30.20,ESE,120,0.0,1.0,96,0.00,,,0.00,Wunderground v.1.15,2013-01-20 07:49:00,
2013-01-20 02:54:00,55.6,54.5,30.20,SE,126,1.0,1.0,96,0.00,,,0.00,Wunderground v.1.15,2013-01-20 07:54:00,
2013-01-20 02:59:00,55.7,54.6,30.20,SE,125,1.0,1.0,96,0.00,,,0.00,Wunderground v.1.15,2013-01-20 07:59:00,
2013-01-20 03:08:00,55.8,54.7,30.20,ESE,108,1.0,1.0,96,0.00,,,0.00,Wunderground v.1.15,2013-01-20 08:08:00,
2013-01-20 03:13:00,55.8,54.7,30.20,SE,136,1.0,1.0,96,0.00,,,0.00,Wunderground v.1.15,2013-01-20 08:13:00,
2013-01-20 03:19:00,55.9,54.8,30.21,SE,132,1.0,1.0,96,0.00,,,0.00,Wunderground v.1.15,2013-01-20 08:19:00,
2013-01-20 03:24:00,55.9,54.8,30.20,SE,126,1.0,1.0,96,0.00,,,0.00,Wunderground v.1.15,2013-01-20 08:24:00,
2013-01-20 03:29:00,56.0,54.9,30.21,SE,135,1.0,1.0,96,0.00,,,0.00,Wunderground v.1.15,2013-01-20 08:29:00,
2013-01-20 03:34:00,56.2,55.1,30.20,South,169,1.0,1.0,96,0.00,,,0.00,Wunderground v.1.15,2013-01-20 08:34:00,
2013-01-20 03:44:00,56.4,55.3,30.20,SE,143,1.0,2.0,96,0.00,,,0.00,Wunderground v.1.15,2013-01-20 08:44:00,
2013-01-20 03:48:00,56.5,55.4,30.21,SSE,147,1.0,2.0,96,0.00,,,0.00,Wunderground v.1.15,2013-01-20 08:48:00,
2013-01-20 03:53:00,56.6,55.5,30.21,SE,128,1.0,2.0,96,0.00,,,0.00,Wunderground v.1.15,2013-01-20 08:53:00,
2013-01-20 03:58:00,56.6,55.5,30.20,South,181,1.0,1.0,96,0.00,,,0.00,Wunderground v.1.15,2013-01-20 08:58:00,
2013-01-20 04:04:00,56.6,55.5,30.20,SE,128,0.0,1.0,96,0.00,,,0.00,Wunderground v.1.15,2013-01-20 09:04:00,
2013-01-20 04:09:00,56.7,55.6,30.20,SSE,150,0.0,0.0,96,0.00,,,0.00,Wunderground v.1.15,2013-01-20 09:09:00,
2013-01-20 04:14:00,56.8,55.7,30.20,SE,132,1.0,1.0,96,0.00,,,0.00,Wunderground v.1.15,2013-01-20 09:14:00,
2013-01-20 04:19:00,56.8,55.7,30.20,SE,135,0.0,0.0,96,0.00,,,0.00,Wunderground v.1.15,2013-01-20 09:19:00,
2013-01-20 04:24:00,56.9,55.8,30.20,SSE,158,0.0,1.0,96,0.00,,,0.00,Wunderground v.1.15,2013-01-20 09:24:00,
2013-01-20 04:29:00,57.0,55.9,30.21,ESE,108,1.0,1.0,96,0.00,,,0.00,Wunderground v.1.15,2013-01-20 09:29:00,
2013-01-20 04:33:00,57.0,55.9,30.20,SE,128,1.0,1.0,96,0.00,,,0.00,Wunderground v.1.15,2013-01-20 09:33:00,
2013-01-20 04:38:00,56.9,55.8,30.21,SE,135,1.0,1.0,96,0.00,,,0.00,Wunderground v.1.15,2013-01-20 09:38:00,
2013-01-20 04:43:00,56.9,55.8,30.21,SE,141,1.0,1.0,96,0.00,,,0.00,Wunderground v.1.15,2013-01-20 09:43:00,
2013-01-20 04:49:00,56.9,55.8,30.21,SE,141,1.0,1.0,96,0.00,,,0.00,Wunderground v.1.15,2013-01-20 09:49:00,
2013-01-20 04:54:00,56.9,55.8,30.20,SSE,149,1.0,1.0,96,0.00,,,0.00,Wunderground v.1.15,2013-01-20 09:54:00,
2013-01-20 04:59:00,56.9,55.8,30.20,SSE,150,0.0,0.0,96,0.00,,,0.00,Wunderground v.1.15,2013-01-20 09:59:00,
2013-01-20 05:04:00,56.9,55.8,30.20,SE,134,0.0,0.0,96,0.00,,,0.00,Wunderground v.1.15,2013-01-20 10:04:00,
2013-01-20 05:09:00,56.8,55.7,30.20,SE,134,0.0,0.0,96,0.00,,,0.00,Wunderground v.1.15,2013-01-20 10:09:00,
2013-01-20 05:14:00,56.8,55.4,30.20,SE,134,0.0,0.0,95,0.00,,,0.00,Wunderground v.1.15,2013-01-20 10:14:00,
2013-01-20 05:18:00,56.8,55.4,30.20,SE,134,0.0,1.0,95,0.00,,,0.00,Wunderground v.1.15,2013-01-20 10:18:00,
2013-01-20 05:24:00,56.7,55.3,30.20,SE,134,0.0,1.0,95,0.00,,,0.00,Wunderground v.1.15,2013-01-20 10:24:00,
2013-01-20 05:29:00,56.7,55.3,30.20,SE,145,0.0,0.0,95,0.00,,,0.00,Wunderground v.1.15,2013-01-20 10:29:00,
2013-01-20 05:39:00,56.6,55.2,30.20,SSE,165,1.0,1.0,95,0.00,,,0.00,Wunderground v.1.15,2013-01-20 10:39:00,
2013-01-20 05:44:00,56.5,55.1,30.20,SSE,166,0.0,1.0,95,0.00,,,0.00,Wunderground v.1.15,2013-01-20 10:44:00,
2013-01-20 05:49:00,56.5,55.1,30.20,SE,132,0.0,0.0,95,0.00,,,0.00,Wunderground v.1.15,2013-01-20 10:49:00,
2013-01-20 05:54:00,56.5,55.1,30.20,ESE,115,1.0,1.0,95,0.00,,,0.00,Wunderground v.1.15,2013-01-20 10:54:00,
2013-01-20 05:59:00,56.4,55.0,30.20,ESE,115,1.0,1.0,95,0.00,,,0.00,Wunderground v.1.15,2013-01-20 10:59:00,
2013-01-20 06:04:00,56.3,54.9,30.20,ESE,116,0.0,1.0,95,0.00,,,0.00,Wunderground v.1.15,2013-01-20 11:04:00,
2013-01-20 06:08:00,56.2,54.8,30.20,ESE,115,0.0,0.0,95,0.00,,,0.00,Wunderground v.1.15,2013-01-20 11:08:00,
2013-01-20 06:13:00,56.2,54.8,30.20,ESE,115,0.0,0.0,95,0.00,,,0.00,Wunderground v.1.15,2013-01-20 11:13:00,
2013-01-20 06:19:00,56.1,54.7,30.20,ESE,120,0.0,0.0,95,0.00,,,0.00,Wunderground v.1.15,2013-01-20 11:19:00,
2013-01-20 06:24:00,56.1,54.7,30.20,ESE,120,0.0,1.0,95,0.00,,,0.00,Wunderground v.1.15,2013-01-20 11:24:00,
2013-01-20 06:28:00,56.0,54.6,30.20,ESE,120,0.0,0.0,95,0.00,,,0.00,Wunderground v.1.15,2013-01-20 11:28:00,
2013-01-20 06:34:00,55.9,54.5,30.20,ESE,120,0.0,0.0,95,0.00,,,0.00,Wunderground v.1.15,2013-01-20 11:34:00,
2013-01-20 06:39:00,55.9,54.5,30.20,ESE,120,0.0,0.0,95,0.00,,,0.00,Wunderground v.1.15,2013-01-20 11:39:00,
2013-01-20 06:44:00,55.9,54.2,30.21,ESE,120,0.0,0.0,94,0.00,,,0.00,Wunderground v.1.15,2013-01-20 11:44:00,
2013-01-20 06:49:00,55.9,54.2,30.21,ESE,120,0.0,0.0,94,0.00,,,0.00,Wunderground v.1.15,2013-01-20 11:49:00,
2013-01-20 06:54:00,55.9,54.2,30.21,ESE,120,0.0,0.0,94,0.00,,,0.00,Wunderground v.1.15,2013-01-20 11:54:00,
2013-01-20 06:59:00,55.8,54.1,30.21,ESE,120,0.0,0.0,94,0.00,,,0.00,Wunderground v.1.15,2013-01-20 11:59:00,
2013-01-20 07:04:00,55.8,54.1,30.21,ESE,120,0.0,0.0,94,0.00,,,0.00,Wunderground v.1.15,2013-01-20 12:04:00,
2013-01-20 07:09:00,55.8,54.1,30.21,ESE,120,0.0,0.0,94,0.00,,,0.00,Wunderground v.1.15,2013-01-20 12:09:00,
2013-01-20 07:14:00,55.8,54.1,30.21,ESE,120,0.0,0.0,94,0.00,,,0.00,Wunderground v.1.15,2013-01-20 12:14:00,
2013-01-20 07:19:00,55.8,54.1,30.21,ESE,120,0.0,0.0,94,0.00,,,0.00,Wunderground v.1.15,2013-01-20 12:19:00,
2013-01-20 07:24:00,55.8,54.1,30.21,ESE,120,0.0,0.0,94,0.00,,,0.00,Wunderground v.1.15,2013-01-20 12:24:00,
2013-01-20 07:29:00,55.9,54.2,30.21,ESE,120,0.0,0.0,94,0.00,,,0.00,Wunderground v.1.15,2013-01-20 12:29:00,
2013-01-20 07:33:00,55.9,54.2,30.21,SSE,148,0.0,0.0,94,0.00,,,0.00,Wunderground v.1.15,2013-01-20 12:33:00,
2013-01-20 07:39:00,55.9,54.2,30.22,SE,146,0.0,0.0,94,0.00,,,0.00,Wunderground v.1.15,2013-01-20 12:39:00,
2013-01-20 07:44:00,55.9,54.2,30.22,SSE,148,0.0,0.0,94,0.00,,,0.00,Wunderground v.1.15,2013-01-20 12:44:00,
2013-01-20 07:48:00,55.9,53.9,30.22,SSE,154,0.0,1.0,93,0.00,,,0.00,Wunderground v.1.15,2013-01-20 12:48:00,
2013-01-20 07:53:00,55.9,53.9,30.22,SE,134,1.0,1.0,93,0.00,,,0.00,Wunderground v.1.15,2013-01-20 12:53:00,
2013-01-20 07:58:00,56.0,54.0,30.21,SSW,201,1.0,2.0,93,0.00,,,0.00,Wunderground v.1.15,2013-01-20 12:58:00,
2013-01-20 08:04:00,56.1,53.8,30.21,SSE,153,2.0,2.0,92,0.00,,,0.00,Wunderground v.1.15,2013-01-20 13:04:00,
2013-01-20 08:09:00,56.3,54.0,30.21,South,172,2.0,5.0,92,0.00,,,0.00,Wunderground v.1.15,2013-01-20 13:09:00,
2013-01-20 08:14:00,56.5,53.9,30.21,SE,124,2.0,5.0,91,0.00,,,0.00,Wunderground v.1.15,2013-01-20 13:14:00,
2013-01-20 08:19:00,56.7,54.1,30.21,SSW,198,2.0,2.0,91,0.00,,,0.00,Wunderground v.1.15,2013-01-20 13:19:00,
2013-01-20 08:24:00,56.8,53.9,30.21,SSE,159,1.0,2.0,90,0.00,,,0.00,Wunderground v.1.15,2013-01-20 13:24:00,
2013-01-20 08:29:00,56.9,54.0,30.22,SE,135,1.0,1.0,90,0.00,,,0.00,Wunderground v.1.15,2013-01-20 13:29:00,
2013-01-20 08:33:00,56.9,53.7,30.22,SE,128,1.0,1.0,89,0.00,,,0.00,Wunderground v.1.15,2013-01-20 13:33:00,
2013-01-20 08:38:00,56.9,53.7,30.23,ESE,110,0.0,2.0,89,0.00,,,0.00,Wunderground v.1.15,2013-01-20 13:38:00,
2013-01-20 08:43:00,57.0,53.8,30.23,ESE,110,0.0,2.0,89,0.00,,,0.00,Wunderground v.1.15,2013-01-20 13:43:00,
2013-01-20 08:49:00,57.1,53.6,30.23,ESE,119,0.0,0.0,88,0.00,,,0.00,Wunderground v.1.15,2013-01-20 13:49:00,
2013-01-20 08:54:00,57.2,53.4,30.23,ESE,113,1.0,1.0,87,0.00,,,0.00,Wunderground v.1.15,2013-01-20 13:54:00,
2013-01-20 08:59:00,57.3,53.5,30.23,SE,128,1.0,1.0,87,0.00,,,0.00,Wunderground v.1.15,2013-01-20 13:59:00,
2013-01-20 09:04:00,57.5,53.3,30.23,SE,128,0.0,1.0,86,0.00,,,0.00,Wunderground v.1.15,2013-01-20 14:04:00,
2013-01-20 09:09:00,57.6,53.1,30.23,SE,126,1.0,1.0,85,0.00,,,0.00,Wunderground v.1.15,2013-01-20 14:09:00,
2013-01-20 09:14:00,57.8,53.6,30.23,SE,126,1.0,1.0,86,0.00,,,0.00,Wunderground v.1.15,2013-01-20 14:14:00,
2013-01-20 09:18:00,58.0,53.5,30.23,ESE,122,1.0,1.0,85,0.00,,,0.00,Wunderground v.1.15,2013-01-20 14:18:00,
2013-01-20 09:24:00,58.2,53.4,30.24,ESE,121,1.0,1.0,84,0.00,,,0.00,Wunderground v.1.15,2013-01-20 14:24:00,
2013-01-20 09:29:00,58.5,53.7,30.24,SE,134,1.0,1.0,84,0.00,,,0.00,Wunderground v.1.15,2013-01-20 14:29:00,
2013-01-20 09:39:00,59.1,53.6,30.24,ESE,103,0.0,0.0,82,0.00,,,0.00,Wunderground v.1.15,2013-01-20 14:39:00,
2013-01-20 09:44:00,59.4,53.6,30.24,SSW,203,1.0,1.0,81,0.00,,,0.00,Wunderground v.1.15,2013-01-20 14:44:00,
2013-01-20 09:49:00,59.7,53.5,30.24,SSW,200,1.0,1.0,80,0.00,,,0.00,Wunderground v.1.15,2013-01-20 14:49:00,
2013-01-20 09:54:00,60.5,54.6,30.24,SSE,160,1.0,1.0,81,0.00,,,0.00,Wunderground v.1.15,2013-01-20 14:54:00,
2013-01-20 09:59:00,61.0,54.1,30.24,SW,214,1.0,1.0,78,0.00,,,0.00,Wunderground v.1.15,2013-01-20 14:59:00,
2013-01-20 10:03:00,61.4,54.5,30.24,SE,134,1.0,1.0,78,0.00,,,0.00,Wunderground v.1.15,2013-01-20 15:03:00,
2013-01-20 10:08:00,62.0,54.7,30.24,SSW,193,1.0,2.0,77,0.00,,,0.00,Wunderground v.1.15,2013-01-20 15:08:00,
2013-01-20 10:14:00,62.4,54.4,30.24,SSE,168,0.0,2.0,75,0.00,,,0.00,Wunderground v.1.15,2013-01-20 15:14:00,
2013-01-20 10:19:00,62.9,54.9,30.24,SSW,203,1.0,1.0,75,0.00,,,0.00,Wunderground v.1.15,2013-01-20 15:19:00,
2013-01-20 10:24:00,63.2,54.4,30.24,SSW,203,1.0,2.0,73,0.00,,,0.00,Wunderground v.1.15,2013-01-20 15:24:00,
2013-01-20 10:29:00,63.3,54.5,30.23,WSW,243,2.0,2.0,73,0.00,,,0.00,Wunderground v.1.15,2013-01-20 15:29:00,
2013-01-20 10:34:00,62.8,54.0,30.23,SSW,203,2.0,2.0,73,0.00,,,0.00,Wunderground v.1.15,2013-01-20 15:34:00,
2013-01-20 10:39:00,62.8,54.4,30.23,South,188,1.0,1.0,74,0.00,,,0.00,Wunderground v.1.15,2013-01-20 15:39:00,
2013-01-20 10:44:00,62.7,53.9,30.23,SW,217,2.0,2.0,73,0.00,,,0.00,Wunderground v.1.15,2013-01-20 15:44:00,
2013-01-20 10:48:00,62.9,54.5,30.23,SE,134,2.0,2.0,74,0.00,,,0.00,Wunderground v.1.15,2013-01-20 15:48:00,
2013-01-20 10:53:00,63.3,54.5,30.23,SSW,207,1.0,2.0,73,0.00,,,0.00,Wunderground v.1.15,2013-01-20 15:53:00,
2013-01-20 10:58:00,63.8,55.0,30.22,SW,218,1.0,2.0,73,0.00,,,0.00,Wunderground v.1.15,2013-01-20 15:58:00,
2013-01-20 11:04:00,64.4,55.2,30.22,SSE,152,2.0,2.0,72,0.00,,,0.00,Wunderground v.1.15,2013-01-20 16:04:00,
2013-01-20 11:14:00,65.3,55.3,30.21,ESE,123,2.0,6.0,70,0.00,,,0.00,Wunderground v.1.15,2013-01-20 16:14:00,
2013-01-20 11:19:00,65.7,54.8,30.21,South,181,2.0,2.0,68,0.00,,,0.00,Wunderground v.1.15,2013-01-20 16:19:00,
2013-01-20 11:24:00,65.9,54.2,30.21,SW,217,2.0,2.0,66,0.00,,,0.00,Wunderground v.1.15,2013-01-20 16:24:00,
2013-01-20 11:29:00,66.2,55.3,30.21,WSW,255,2.0,2.0,68,0.00,,,0.00,Wunderground v.1.15,2013-01-20 16:29:00,
2013-01-20 11:33:00,66.6,56.1,30.21,SSW,200,3.0,3.0,69,0.00,,,0.00,Wunderground v.1.15,2013-01-20 16:33:00,
2013-01-20 11:38:00,66.8,53.4,30.20,South,191,2.0,2.0,62,0.00,,,0.00,Wunderground v.1.15,2013-01-20 16:38:00,
2013-01-20 11:43:00,67.2,52.8,30.20,SSE,166,3.0,3.0,60,0.00,,,0.00,Wunderground v.1.15,2013-01-20 16:43:00,
2013-01-20 11:49:00,67.6,53.7,30.20,South,179,3.0,3.0,61,0.00,,,0.00,Wunderground v.1.15,2013-01-20 16:49:00,
2013-01-20 11:54:00,68.0,54.0,30.19,SE,146,3.0,3.0,61,0.00,,,0.00,Wunderground v.1.15,2013-01-20 16:54:00,
2013-01-20 11:59:00,68.1,52.3,30.19,South,173,3.0,3.0,57,0.00,,,0.00,Wunderground v.1.15,2013-01-20 16:59:00,
2013-01-20 12:04:00,68.0,52.7,30.19,South,186,3.0,3.0,58,0.00,,,0.00,Wunderground v.1.15,2013-01-20 17:04:00,
2013-01-20 12:09:00,68.5,52.2,30.18,SE,146,3.0,3.0,56,0.00,,,0.00,Wunderground v.1.15,2013-01-20 17:09:00,
2013-01-20 12:14:00,68.8,52.9,30.18,West,259,2.0,4.0,57,0.00,,,0.00,Wunderground v.1.15,2013-01-20 17:14:00,
2013-01-20 12:19:00,68.6,53.7,30.17,SW,224,3.0,3.0,59,0.00,,,0.00,Wunderground v.1.15,2013-01-20 17:19:00,
2013-01-20 12:24:00,68.5,53.1,30.17,SSW,207,3.0,3.0,58,0.00,,,0.00,Wunderground v.1.15,2013-01-20 17:24:00,
2013-01-20 12:29:00,68.5,53.6,30.17,South,176,2.0,2.0,59,0.00,,,0.00,Wunderground v.1.15,2013-01-20 17:29:00,
2013-01-20 12:34:00,68.6,52.8,30.17,SSW,212,2.0,4.0,57,0.00,,,0.00,Wunderground v.1.15,2013-01-20 17:34:00,
2013-01-20 12:39:00,68.7,52.4,30.16,SSW,207,2.0,3.0,56,0.00,,,0.00,Wunderground v.1.15,2013-01-20 17:39:00,
2013-01-20 12:44:00,68.4,52.1,30.16,SSW,194,3.0,3.0,56,0.00,,,0.00,Wunderground v.1.15,2013-01-20 17:44:00,
2013-01-20 12:49:00,68.6,52.8,30.15,SSW,204,3.0,3.0,57,0.00,,,0.00,Wunderground v.1.15,2013-01-20 17:49:00,
2013-01-20 12:54:00,68.7,52.8,30.15,SSW,200,2.0,3.0,57,0.00,,,0.00,Wunderground v.1.15,2013-01-20 17:54:00,
2013-01-20 12:59:00,68.9,53.0,30.14,SSE,167,2.0,2.0,57,0.00,,,0.00,Wunderground v.1.15,2013-01-20 17:59:00,
2013-01-20 13:04:00,68.9,52.6,30.14,SSW,212,2.0,2.0,56,0.00,,,0.00,Wunderground v.1.15,2013-01-20 18:04:00,
2013-01-20 13:08:00,68.9,52.1,30.14,WSW,240,2.0,2.0,55,0.00,,,0.00,Wunderground v.1.15,2013-01-20 18:08:00,
2013-01-20 13:13:00,68.8,52.5,30.14,SSW,193,2.0,2.0,56,0.00,,,0.00,Wunderground v.1.15,2013-01-20 18:13:00,
2013-01-20 13:19:00,69.3,52.4,30.13,WNW,283,2.0,2.0,55,0.00,,,0.00,Wunderground v.1.15,2013-01-20 18:19:00,
2013-01-20 13:23:00,69.5,52.6,30.13,SW,219,2.0,3.0,55,0.00,,,0.00,Wunderground v.1.15,2013-01-20 18:23:00,
2013-01-20 13:28:00,69.7,52.8,30.13,SW,231,2.0,2.0,55,0.00,,,0.00,Wunderground v.1.15,2013-01-20 18:28:00,
2013-01-20 13:34:00,69.6,52.7,30.12,WSW,246,2.0,2.0,55,0.00,,,0.00,Wunderground v.1.15,2013-01-20 18:34:00,
2013-01-20 13:39:00,69.7,53.3,30.12,NW,309,2.0,2.0,56,0.00,,,0.00,Wunderground v.1.15,2013-01-20 18:39:00,
2013-01-20 13:44:00,70.0,53.6,30.12,SSW,208,2.0,3.0,56,0.00,,,0.00,Wunderground v.1.15,2013-01-20 18:44:00,
2013-01-20 13:48:00,70.2,53.3,30.12,SW,222,3.0,4.0,55,0.00,,,0.00,Wunderground v.1.15,2013-01-20 18:48:00,
2013-01-20 13:53:00,69.9,52.5,30.12,SSW,198,3.0,4.0,54,0.00,,,0.00,Wunderground v.1.15,2013-01-20 18:53:00,
2013-01-20 13:58:00,70.0,53.1,30.11,WNW,288,3.0,3.0,55,0.00,,,0.00,Wunderground v.1.15,2013-01-20 18:58:00,
2013-01-20 14:03:00,70.4,53.0,30.11,SSW,208,3.0,3.0,54,0.00,,,0.00,Wunderground v.1.15,2013-01-20 19:03:00,
2013-01-20 14:08:00,70.4,53.0,30.11,SSW,200,3.0,3.0,54,0.00,,,0.00,Wunderground v.1.15,2013-01-20 19:08:00,
2013-01-20 14:13:00,70.2,52.8,30.11,SW,217,3.0,3.0,54,0.00,,,0.00,Wunderground v.1.15,2013-01-20 19:13:00,
2013-01-20 14:19:00,70.4,53.5,30.10,WSW,238,3.0,4.0,55,0.00,,,0.00,Wunderground v.1.15,2013-01-20 19:19:00,
2013-01-20 14:24:00,70.5,53.1,30.10,SSW,192,2.0,4.0,54,0.00,,,0.00,Wunderground v.1.15,2013-01-20 19:24:00,
2013-01-20 14:29:00,70.9,52.4,30.10,SW,214,2.0,2.0,52,0.00,,,0.00,Wunderground v.1.15,2013-01-20 19:29:00,
2013-01-20 14:33:00,70.9,52.9,30.10,SSE,159,2.0,2.0,53,0.00,,,0.00,Wunderground v.1.15,2013-01-20 19:33:00,
2013-01-20 14:39:00,71.1,52.6,30.10,SSW,207,2.0,2.0,52,0.00,,,0.00,Wunderground v.1.15,2013-01-20 19:39:00,
2013-01-20 14:44:00,71.4,53.9,30.09,WSW,255,1.0,3.0,54,0.00,,,0.00,Wunderground v.1.15,2013-01-20 19:44:00,
2013-01-20 14:49:00,71.5,53.5,30.09,WSW,249,2.0,2.0,53,0.00,,,0.00,Wunderground v.1.15,2013-01-20 19:49:00,
2013-01-20 14:54:00,71.9,53.3,30.09,SE,135,2.0,2.0,52,0.00,,,0.00,Wunderground v.1.15,2013-01-20 19:54:00,
2013-01-20 14:59:00,72.4,53.8,30.09,ESE,117,1.0,1.0,52,0.00,,,0.00,Wunderground v.1.15,2013-01-20 19:59:00,
2013-01-20 15:04:00,72.5,53.3,30.09,ESE,112,2.0,2.0,51,0.00,,,0.00,Wunderground v.1.15,2013-01-20 20:04:00,
2013-01-20 15:14:00,72.7,54.1,30.09,ESE,118,1.0,2.0,52,0.00,,,0.00,Wunderground v.1.15,2013-01-20 20:14:00,
2013-01-20 15:19:00,72.9,54.2,30.09,WNW,300,1.0,1.0,52,0.00,,,0.00,Wunderground v.1.15,2013-01-20 20:19:00,
2013-01-20 15:24:00,72.2,54.6,30.09,South,179,2.0,2.0,54,0.00,,,0.00,Wunderground v.1.15,2013-01-20 20:24:00,
2013-01-20 15:29:00,72.4,53.8,30.09,ESE,104,2.0,3.0,52,0.00,,,0.00,Wunderground v.1.15,2013-01-20 20:29:00,
2013-01-20 15:38:00,73.5,53.7,30.09,East,85,1.0,2.0,50,0.00,,,0.00,Wunderground v.1.15,2013-01-20 20:38:00,
2013-01-20 15:49:00,73.5,53.2,30.09,SE,129,1.0,1.0,49,0.00,,,0.00,Wunderground v.1.15,2013-01-20 20:49:00,
2013-01-20 15:54:00,73.6,54.4,30.09,East,101,1.0,2.0,51,0.00,,,0.00,Wunderground v.1.15,2013-01-20 20:54:00,
2013-01-20 15:59:00,73.4,54.2,30.09,SSW,203,2.0,2.0,51,0.00,,,0.00,Wunderground v.1.15,2013-01-20 20:59:00,
2013-01-20 16:04:00,73.0,53.8,30.09,SE,128,2.0,2.0,51,0.00,,,0.00,Wunderground v.1.15,2013-01-20 21:04:00,
2013-01-20 16:09:00,72.9,53.7,30.09,ESE,122,2.0,2.0,51,0.00,,,0.00,Wunderground v.1.15,2013-01-20 21:09:00,
2013-01-20 16:14:00,72.6,54.0,30.09,SE,143,1.0,2.0,52,0.00,,,0.00,Wunderground v.1.15,2013-01-20 21:14:00,
2013-01-20 16:18:00,72.3,53.7,30.09,SE,134,2.0,2.0,52,0.00,,,0.00,Wunderground v.1.15,2013-01-20 21:18:00,
2013-01-20 16:23:00,72.0,53.4,30.09,SSE,160,1.0,2.0,52,0.00,,,0.00,Wunderground v.1.15,2013-01-20 21:23:00,
2013-01-20 16:28:00,71.7,53.7,30.09,SSE,158,2.0,2.0,53,0.00,,,0.00,Wunderground v.1.15,2013-01-20 21:28:00,
2013-01-20 16:34:00,71.6,54.1,30.09,SE,139,2.0,3.0,54,0.00,,,0.00,Wunderground v.1.15,2013-01-20 21:34:00,
2013-01-20 16:39:00,71.5,54.0,30.09,SSE,155,2.0,2.0,54,0.00,,,0.00,Wunderground v.1.15,2013-01-20 21:39:00,
2013-01-20 16:44:00,71.4,54.4,30.09,SE,134,2.0,2.0,55,0.00,,,0.00,Wunderground v.1.15,2013-01-20 21:44:00,
2013-01-20 16:49:00,71.3,54.3,30.10,SE,131,1.0,1.0,55,0.00,,,0.00,Wunderground v.1.15,2013-01-20 21:49:00,
2013-01-20 16:54:00,71.2,54.2,30.10,SE,143,1.0,2.0,55,0.00,,,0.00,Wunderground v.1.15,2013-01-20 21:54:00,
2013-01-20 16:59:00,71.0,53.5,30.10,ESE,123,1.0,1.0,54,0.00,,,0.00,Wunderground v.1.15,2013-01-20 21:59:00,
2013-01-20 17:08:00,70.6,53.6,30.10,ESE,118,1.0,1.0,55,0.00,,,0.00,Wunderground v.1.15,2013-01-20 22:08:00,
2013-01-20 17:13:00,70.4,53.5,30.10,SE,131,1.0,2.0,55,0.00,,,0.00,Wunderground v.1.15,2013-01-20 22:13:00,
2013-01-20 17:19:00,70.2,53.8,30.10,SE,129,1.0,1.0,56,0.00,,,0.00,Wunderground v.1.15,2013-01-20 22:19:00,
2013-01-20 17:24:00,70.1,53.7,30.10,ESE,122,1.0,2.0,56,0.00,,,0.00,Wunderground v.1.15,2013-01-20 22:24:00,
2013-01-20 17:29:00,69.9,53.5,30.10,SE,130,1.0,3.0,56,0.00,,,0.00,Wunderground v.1.15,2013-01-20 22:29:00,
2013-01-20 17:34:00,69.7,53.8,30.10,SE,131,1.0,3.0,57,0.00,,,0.00,Wunderground v.1.15,2013-01-20 22:34:00,
2013-01-20 17:39:00,69.4,53.5,30.10,SE,131,0.0,0.0,57,0.00,,,0.00,Wunderground v.1.15,2013-01-20 22:39:00,
2013-01-20 17:44:00,68.9,54.0,30.10,SE,131,0.0,0.0,59,0.00,,,0.00,Wunderground v.1.15,2013-01-20 22:44:00,
2013-01-20 17:48:00,68.4,54.0,30.10,SE,131,0.0,0.0,60,0.00,,,0.00,Wunderground v.1.15,2013-01-20 22:48:00,
2013-01-20 17:53:00,67.9,54.4,30.10,SE,131,0.0,0.0,62,0.00,,,0.00,Wunderground v.1.15,2013-01-20 22:53:00,
2013-01-20 17:58:00,67.1,54.1,30.10,SE,131,0.0,0.0,63,0.00,,,0.00,Wunderground v.1.15,2013-01-20 22:58:00,
2013-01-20 18:04:00,66.4,54.3,30.11,SE,132,0.0,0.0,65,0.00,,,0.00,Wunderground v.1.15,2013-01-20 23:04:00,
2013-01-20 18:09:00,65.9,54.2,30.10,SE,133,0.0,0.0,66,0.00,,,0.00,Wunderground v.1.15,2013-01-20 23:09:00,
2013-01-20 18:14:00,65.5,54.2,30.10,SE,146,0.0,1.0,67,0.00,,,0.00,Wunderground v.1.15,2013-01-20 23:14:00,
2013-01-20 18:19:00,65.4,54.2,30.11,NNW,332,1.0,1.0,67,0.00,,,0.00,Wunderground v.1.15,2013-01-20 23:19:00,
2013-01-20 18:24:00,65.3,54.1,30.11,NNW,331,1.0,1.0,67,0.00,,,0.00,Wunderground v.1.15,2013-01-20 23:24:00,
2013-01-20 18:29:00,65.0,55.4,30.11,NNW,331,0.0,0.0,71,0.00,,,0.00,Wunderground v.1.15,2013-01-20 23:29:00,
2013-01-20 18:38:00,64.3,55.1,30.11,NE,34,0.0,0.0,72,0.00,,,0.00,Wunderground v.1.15,2013-01-20 23:38:00,
2013-01-20 18:43:00,63.9,54.7,30.11,NNE,19,0.0,1.0,72,0.00,,,0.00,Wunderground v.1.15,2013-01-20 23:43:00,
2013-01-20 18:49:00,63.6,54.4,30.11,NNE,19,0.0,0.0,72,0.00,,,0.00,Wunderground v.1.15,2013-01-20 23:49:00,
2013-01-20 18:54:00,63.3,54.1,30.12,NNE,19,0.0,0.0,72,0.00,,,0.00,Wunderground v.1.15,2013-01-20 23:54:00,
2013-01-20 18:59:00,63.1,53.9,30.12,NNE,19,0.0,0.0,72,0.00,,,0.00,Wunderground v.1.15,2013-01-20 23:59:00,
2013-01-20 19:08:00,62.1,53.3,30.12,NE,41,0.0,0.0,73,0.00,,,0.00,Wunderground v.1.15,2013-01-21 00:08:00,
2013-01-20 19:14:00,61.6,53.2,30.11,NE,41,0.0,0.0,74,0.00,,,0.00,Wunderground v.1.15,2013-01-21 00:14:00,
2013-01-20 19:24:00,60.6,53.0,30.11,NE,41,0.0,0.0,76,0.00,,,0.00,Wunderground v.1.15,2013-01-21 00:24:00,
2013-01-20 19:29:00,60.1,52.9,30.11,NE,50,0.0,0.0,77,0.00,,,0.00,Wunderground v.1.15,2013-01-21 00:29:00,
2013-01-20 19:33:00,59.8,52.9,30.12,NE,50,0.0,0.0,78,0.00,,,0.00,Wunderground v.1.15,2013-01-21 00:33:00,
2013-01-20 19:38:00,59.4,52.9,30.12,NE,49,0.0,0.0,79,0.00,,,0.00,Wunderground v.1.15,2013-01-21 00:38:00,
2013-01-20 19:43:00,59.2,52.7,30.12,NE,50,0.0,0.0,79,0.00,,,0.00,Wunderground v.1.15,2013-01-21 00:43:00,
2013-01-20 19:48:00,59.1,52.9,30.12,NE,50,0.0,0.0,80,0.00,,,0.00,Wunderground v.1.15,2013-01-21 00:48:00,
2013-01-20 19:54:00,59.0,52.8,30.12,NE,50,0.0,0.0,80,0.00,,,0.00,Wunderground v.1.15,2013-01-21 00:54:00,
2013-01-20 19:59:00,58.9,52.7,30.12,NE,50,0.0,0.0,80,0.00,,,0.00,Wunderground v.1.15,2013-01-21 00:59:00,
2013-01-20 20:04:00,58.6,52.8,30.12,NE,49,0.0,0.0,81,0.00,,,0.00,Wunderground v.1.15,2013-01-21 01:04:00,
2013-01-20 20:09:00,58.4,52.6,30.12,NE,50,0.0,0.0,81,0.00,,,0.00,Wunderground v.1.15,2013-01-21 01:09:00,
2013-01-20 20:14:00,58.3,52.5,30.13,NE,48,0.0,0.0,81,0.00,,,0.00,Wunderground v.1.15,2013-01-21 01:14:00,
2013-01-20 20:18:00,58.2,52.7,30.13,NE,48,0.0,0.0,82,0.00,,,0.00,Wunderground v.1.15,2013-01-21 01:18:00,
2013-01-20 20:24:00,58.0,52.5,30.13,NE,48,0.0,0.0,82,0.00,,,0.00,Wunderground v.1.15,2013-01-21 01:24:00,
2013-01-20 20:29:00,57.9,52.8,30.13,NE,49,0.0,0.0,83,0.00,,,0.00,Wunderground v.1.15,2013-01-21 01:29:00,
2013-01-20 20:39:00,57.6,52.8,30.13,ENE,65,0.0,0.0,84,0.00,,,0.00,Wunderground v.1.15,2013-01-21 01:39:00,
2013-01-20 20:44:00,57.5,52.7,30.13,ENE,70,0.0,0.0,84,0.00,,,0.00,Wunderground v.1.15,2013-01-21 01:44:00,
2013-01-20 20:49:00,57.3,52.5,30.13,ENE,70,0.0,0.0,84,0.00,,,0.00,Wunderground v.1.15,2013-01-21 01:49:00,
2013-01-20 20:54:00,57.0,52.5,30.13,ENE,71,0.0,0.0,85,0.00,,,0.00,Wunderground v.1.15,2013-01-21 01:54:00,
2013-01-20 20:59:00,56.8,52.3,30.13,ENE,71,0.0,0.0,85,0.00,,,0.00,Wunderground v.1.15,2013-01-21 01:59:00,
2013-01-20 21:04:00,56.7,52.6,30.13,ENE,71,0.0,0.0,86,0.00,,,0.00,Wunderground v.1.15,2013-01-21 02:04:00,
2013-01-20 21:09:00,56.5,52.4,30.13,ENE,70,0.0,0.0,86,0.00,,,0.00,Wunderground v.1.15,2013-01-21 02:09:00,
2013-01-20 21:13:00,56.1,52.0,30.13,ENE,70,0.0,0.0,86,0.00,,,0.00,Wunderground v.1.15,2013-01-21 02:13:00,
2013-01-20 21:19:00,55.9,52.1,30.13,ENE,70,0.0,0.0,87,0.00,,,0.00,Wunderground v.1.15,2013-01-21 02:19:00,
2013-01-20 21:24:00,55.9,52.1,30.14,ENE,71,0.0,0.0,87,0.00,,,0.00,Wunderground v.1.15,2013-01-21 02:24:00,
2013-01-20 21:34:00,55.5,52.0,30.14,ENE,70,0.0,0.0,88,0.00,,,0.00,Wunderground v.1.15,2013-01-21 02:34:00,
2013-01-20 21:39:00,55.3,51.8,30.14,ENE,71,0.0,0.0,88,0.00,,,0.00,Wunderground v.1.15,2013-01-21 02:39:00,
2013-01-20 21:44:00,55.0,51.8,30.14,ENE,70,0.0,0.0,89,0.00,,,0.00,Wunderground v.1.15,2013-01-21 02:44:00,
2013-01-20 21:48:00,54.9,51.7,30.14,ENE,70,0.0,0.0,89,0.00,,,0.00,Wunderground v.1.15,2013-01-21 02:48:00,
2013-01-20 21:53:00,54.7,51.5,30.14,ENE,71,0.0,0.0,89,0.00,,,0.00,Wunderground v.1.15,2013-01-21 02:53:00,
2013-01-20 21:58:00,54.6,51.7,30.14,ENE,71,0.0,0.0,90,0.00,,,0.00,Wunderground v.1.15,2013-01-21 02:58:00,
2013-01-20 22:03:00,54.4,51.5,30.14,ENE,71,0.0,0.0,90,0.00,,,0.00,Wunderground v.1.15,2013-01-21 03:03:00,
2013-01-20 22:08:00,54.5,51.9,30.14,ENE,70,0.0,0.0,91,0.00,,,0.00,Wunderground v.1.15,2013-01-21 03:08:00,
2013-01-20 22:13:00,54.4,51.8,30.14,ENE,70,0.0,0.0,91,0.00,,,0.00,Wunderground v.1.15,2013-01-21 03:13:00,
2013-01-20 22:19:00,54.3,51.7,30.14,ENE,71,0.0,0.0,91,0.00,,,0.00,Wunderground v.1.15,2013-01-21 03:19:00,
2013-01-20 22:24:00,54.2,51.6,30.14,ENE,70,0.0,0.0,91,0.00,,,0.00,Wunderground v.1.15,2013-01-21 03:24:00,
2013-01-20 22:29:00,54.1,51.8,30.14,ENE,70,0.0,0.0,92,0.00,,,0.00,Wunderground v.1.15,2013-01-21 03:29:00,
2013-01-20 22:38:00,53.8,51.5,30.14,ENE,71,0.0,0.0,92,0.00,,,0.00,Wunderground v.1.15,2013-01-21 03:38:00,
2013-01-20 22:43:00,53.6,51.3,30.14,ENE,71,0.0,0.0,92,0.00,,,0.00,Wunderground v.1.15,2013-01-21 03:43:00,
2013-01-20 22:49:00,53.7,51.7,30.14,ENE,70,0.0,0.0,93,0.00,,,0.00,Wunderground v.1.15,2013-01-21 03:49:00,
2013-01-20 22:54:00,53.7,51.7,30.14,ENE,71,0.0,0.0,93,0.00,,,0.00,Wunderground v.1.15,2013-01-21 03:54:00,
2013-01-20 22:59:00,53.7,51.7,30.14,ENE,71,0.0,0.0,93,0.00,,,0.00,Wunderground v.1.15,2013-01-21 03:59:00,
2013-01-20 23:04:00,53.7,51.7,30.14,ENE,71,0.0,0.0,93,0.00,,,0.00,Wunderground v.1.15,2013-01-21 04:04:00,
2013-01-20 23:09:00,53.7,51.7,30.14,ENE,71,0.0,0.0,93,0.00,,,0.00,Wunderground v.1.15,2013-01-21 04:09:00,
2013-01-20 23:14:00,53.4,51.4,30.14,ENE,72,0.0,0.0,93,0.00,,,0.00,Wunderground v.1.15,2013-01-21 04:14:00,
2013-01-20 23:18:00,53.2,51.2,30.14,ENE,72,0.0,0.0,93,0.00,,,0.00,Wunderground v.1.15,2013-01-21 04:18:00,
2013-01-20 23:23:00,53.3,51.6,30.14,ENE,72,0.0,0.0,94,0.00,,,0.00,Wunderground v.1.15,2013-01-21 04:23:00,
2013-01-20 23:28:00,53.3,51.6,30.14,ENE,72,0.0,0.0,94,0.00,,,0.00,Wunderground v.1.15,2013-01-21 04:28:00,
2013-01-20 23:34:00,53.3,51.6,30.14,ENE,72,0.0,0.0,94,0.00,,,0.00,Wunderground v.1.15,2013-01-21 04:34:00,
2013-01-20 23:39:00,53.1,51.4,30.14,ENE,72,0.0,0.0,94,0.00,,,0.00,Wunderground v.1.15,2013-01-21 04:39:00,
2013-01-20 23:44:00,53.0,51.3,30.13,ENE,72,0.0,0.0,94,0.00,,,0.00,Wunderground v.1.15,2013-01-21 04:44:00,
2013-01-20 23:49:00,53.0,51.3,30.13,ENE,72,0.0,0.0,94,0.00,,,0.00,Wunderground v.1.15,2013-01-21 04:49:00,
2013-01-20 23:54:00,52.9,51.5,30.13,ENE,72,0.0,0.0,95,0.00,,,0.00,Wunderground v.1.15,2013-01-21 04:54:00,
2013-01-20 23:59:00,53.0,51.6,30.13,ENE,72,0.0,0.0,95,0.00,,,0.00,Wunderground v.1.15,2013-01-21 04:59:00,